DECAYED

STARLINK-1976, 47574 (Decayed)

Orbit data source: Space-Track

STARLINK-1976, 47574 was a payload satellite owned by SpaceX/Seattle (US) in LEO that was launched on Thu, 04 Feb 2021 UTC via an FALCON 9 launch vehicle from the Air Force Eastern Test Range (AFETR). Payload-class satellites include a variety of spacecraft equipped with specific instruments for various scientific and technological missions. These include communications satellites like Starlink; space stations such as the ISS; scientific satellites like the Hubble; Earth observation satellites from companies like Planet Labs, Umbra, and HawkEye 360; GPS; miniature CubeSats for education and research; and military/defense satellites.

Not visible in the next 10 days
Identifier
47574, 2021-009AC
Orbit
Decayed
Country
Flag of USUS
Related business
Manufacturer
SpaceX/Seattle
Mission
Decayed Commercial Communications
Bus & Motor
STARLINK, Unknown motor
Mass
260 kg wet, ~248 kg dry
Launch date (UTC)
2021-02-04 (5 years ago)
Launch vehicle
FALCON 9
Launch site
Air Force Eastern Test Range (AFETR)
Object type
Payload
Rocket body
Debris
Shape & HBR
Box + 1 Pan, 10.1 m
Radar Cross Section
13.562 m², Large (>1 m²)

Expand to show TLE details & history
Last TLE update: 1 year ago

TLE from 1 year ago
0 STARLINK-1976
1 47574U 21009AC  25118.94771080  .05970928  12161-4  10350-2 0  9998
2 47574  53.0246 316.8777 0009781 282.0774 231.2428 16.31994009234488
Epoch: 2025-04-28T22:44Z
TLE epoch observation values (Epoch: 2025-04-28T22:44:42.213Z)
Latitude
21.13847°
Longitude
-78.27605°
Altitude
191.783 km
Speed
7.792 km/s
True Right ascension
08h 00m 13s
True Declination
21° 00' 47"
Sunlit
Object was in daylight at epoch
Visualization orbit readout
Latitude
Unknown
Longitude
Unknown
Altitude
Unknown
Speed
Unknown
Apparent Right ascension
Unknown
Apparent Declination
Unknown
Sunlit
N/A
Visualization observer readout
Local Sidereal Time
23:07:35
Azimuth
Unknown
Elevation
Unknown
Doppler factor
Unknown
Orbital elements
Apogee altitude
193.899 km
Perigee altitude
181.055 km
Semi-major axis
6,565.614 km
Eccentricity
0.00098
Inclination
53.0246°
RAAN
316.8777°
Arg. of periapsis
282.0774°
True anomaly
231.15546°
Mean anomaly
231.2428°
Eccentric anomaly
231.19913°
Mean motion
4.07972 °/min
Orbital period
88.24 mins
BSTAR
0.001035
Loading maneuver chart data...
Computing Atmospheric mass density...

Documentation

Showing up to 5 results
|